Home   Weather   Provo   Past weeks

Flag for USA Past Weather in Provo, Utah, USA — Yesterday and Last 2 Weeks

Now
59 °F

Scattered clouds.


Feels Like: 59 °F
Forecast: 53 / 76 °F
Wind: 5 mph from Southeast

Location: Provo Municipal

Current Time: Oct 1, 2016 at 9:44:14 AM

Latest Report: Oct 1, 2016 at 8:58 AM


Visibility: 10 mi

Pressure: 30.13 "Hg (25.56 "Hg at 1386m altitude)

Humidity: 68%

Dew Point: 48 °F

Location of ProvoLocation

Past Weather in Provo — Graph

°F

Provo Temperature Yesterday

Maximum temperature yesterday: 77 °F (at 3:59 PM)
Minimum temperature yesterday: 57 °F (at 3:56 AM)
Average temperature yesterday: 65 °F

High & Low Weather Summary for the Past Weeks

 TemperatureHumidityPressure
High90 °F (Sep 19, 3:56 PM)100% (Sep 24, 7:58 AM)30.50 "Hg (Sep 24, 7:58 AM)
Low41 °F (Sep 25, 4:56 AM)10% (Sep 19, 3:56 PM)29.50 "Hg (Sep 22, 3:56 PM)
Average61 °F57%30.09 "Hg
* Reported Sep 16 7:56 AM — Oct 1 7:58 AM, Provo, Weather by CustomWeather, © 2016

Note: Actual official high and low records may vary slightly from our data, if they occured in-between our weather recording intervals... More about our weather records

Advertising

Provo Weather History for the Previous 24 Hours

Scroll right to see more
 ConditionsComfort  
Time TempWeatherWind HumidityBarometerVisibility
7:58 AM
Sat, Oct 1
55 °FBroken clouds.9 mph72%30.13 "Hg10 mi
6:56 AM57 °FClear.9 mph69%30.00 "Hg10 mi
5:56 AM55 °FPassing clouds.No wind74%29.99 "Hg10 mi
4:56 AM55 °FClear.7 mph74%29.98 "Hg10 mi
3:56 AM56 °FClear.8 mph72%29.98 "Hg10 mi
2:56 AM54 °FClear.5 mph77%29.99 "Hg10 mi
1:56 AM57 °FClear.5 mph69%30.00 "Hg10 mi
12:56 AM62 °FClear.9 mph58%29.98 "Hg10 mi
11:56 PM
Fri, Sep 30
62 °FClear.7 mph58%29.99 "Hg10 mi
10:56 PM63 °FClear.8 mph56%29.99 "Hg10 mi
9:56 PM62 °FClear.3 mph62%29.99 "Hg10 mi
8:56 PM64 °FClear.3 mph61%29.99 "Hg10 mi
7:58 PM66 °FPassing clouds.6 mph60%30.10 "Hg10 mi
6:58 PM70 °FScattered clouds.6 mph57%30.10 "Hg10 mi
5:59 PM72 °FScattered clouds.13 mph50%30.12 "Hg10 mi
4:59 PM77 °FBroken clouds.No wind32%30.12 "Hg10 mi
3:59 PM77 °FScattered clouds.7 mph36%30.13 "Hg10 mi
2:59 PM75 °FScattered clouds.7 mph39%30.16 "Hg10 mi
1:59 PM73 °FScattered clouds.5 mph41%30.20 "Hg10 mi
12:59 PM72 °FScattered clouds.5 mph50%30.23 "Hg10 mi
11:56 AM67 °FPassing clouds.5 mph59%30.14 "Hg10 mi
10:56 AM65 °FOvercast.6 mph63%30.15 "Hg10 mi
9:56 AM63 °FOvercast.5 mph63%30.15 "Hg10 mi
Weather by CustomWeather, © 2016

See weather overviewHow to use our weather pages